Time,TemperatureF,DewpointF,PressureIn,WindDirection,WindDirectionDegrees,WindSpeedMPH,WindSpeedGustMPH,Humidity,HourlyPrecipIn,Conditions,Clouds,dailyrainin,SoftwareType,DateUTC
2013-05-22 00:00:00,62.4,50.1,29.80,SE,139,3.1,5.8,64,0.00,,OVC014,0.00,VWS V14.01,2013-05-22 07:00:00,
2013-05-22 00:06:00,62.4,50.1,29.80,SSW,195,0.0,0.0,64,0.00,,OVC014,0.00,VWS V14.01,2013-05-22 07:06:00,
2013-05-22 00:11:00,62.4,50.1,29.80,SE,141,2.7,3.6,64,0.00,,OVC014,0.00,VWS V14.01,2013-05-22 07:11:00,
2013-05-22 00:17:00,62.4,50.1,29.80,SE,141,0.0,0.0,64,0.00,,OVC014,0.00,VWS V14.01,2013-05-22 07:17:00,
2013-05-22 00:22:00,62.4,50.1,29.80,SE,141,0.0,0.0,64,0.00,,OVC014,0.00,VWS V14.01,2013-05-22 07:22:00,
2013-05-22 00:28:00,62.4,50.1,29.80,SE,141,0.0,0.0,64,0.00,,OVC014,0.00,VWS V14.01,2013-05-22 07:28:00,
2013-05-22 00:33:00,62.4,50.1,29.80,SSE,168,4.9,4.9,64,0.00,,OVC014,0.00,VWS V14.01,2013-05-22 07:33:00,
2013-05-22 00:39:00,62.4,49.7,29.80,SSE,157,0.0,3.1,63,0.00,,OVC014,0.00,VWS V14.01,2013-05-22 07:39:00,
2013-05-22 00:44:00,62.6,50.2,29.80,SSE,158,3.6,3.6,64,0.00,,OVC012,0.00,VWS V14.01,2013-05-22 07:44:00,
2013-05-22 00:49:00,62.6,49.8,29.80,SE,138,0.0,0.0,63,0.00,,OVC012,0.00,VWS V14.01,2013-05-22 07:49:00,
2013-05-22 00:55:00,62.6,49.4,29.80,SE,138,4.5,4.9,62,0.00,,OVC012,0.00,VWS V14.01,2013-05-22 07:55:00,
2013-05-22 01:00:00,62.6,49.4,29.80,SE,138,2.7,3.1,62,0.00,,OVC012,0.00,VWS V14.01,2013-05-22 08:00:00,
2013-05-22 01:06:00,62.8,49.6,29.80,SE,138,3.1,5.4,62,0.00,,OVC012,0.00,VWS V14.01,2013-05-22 08:06:00,
2013-05-22 01:12:00,62.8,49.6,29.80,ESE,105,0.0,2.2,62,0.00,,OVC012,0.00,VWS V14.01,2013-05-22 08:12:00,
2013-05-22 01:17:00,62.8,49.6,29.80,ESE,123,0.0,0.0,62,0.00,,OVC012,0.00,VWS V14.01,2013-05-22 08:17:00,
2013-05-22 01:23:00,62.8,49.1,29.80,ESE,123,0.0,0.0,61,0.00,,OVC012,0.00,VWS V14.01,2013-05-22 08:23:00,
2013-05-22 01:28:00,62.8,49.1,29.80,SE,136,3.1,3.1,61,0.00,,OVC012,0.00,VWS V14.01,2013-05-22 08:28:00,
2013-05-22 01:33:00,62.8,49.1,29.80,SE,136,0.0,0.0,61,0.00,,OVC012,0.00,VWS V14.01,2013-05-22 08:33:00,
2013-05-22 01:38:00,62.8,48.7,29.80,SE,135,0.0,0.0,60,0.00,,OVC012,0.00,VWS V14.01,2013-05-22 08:38:00,
2013-05-22 01:44:00,62.8,48.7,29.80,SE,135,0.0,0.0,60,0.00,,OVC012,0.00,VWS V14.01,2013-05-22 08:44:00,
2013-05-22 01:49:00,62.8,48.2,29.80,SE,136,3.6,3.6,59,0.00,,OVC012,0.00,VWS V14.01,2013-05-22 08:49:00,
2013-05-22 01:55:00,62.9,48.0,29.80,East,92,2.7,3.6,58,0.00,,OVC012,0.00,VWS V14.01,2013-05-22 08:55:00,
2013-05-22 02:01:00,63.1,48.1,29.80,SE,132,0.0,2.2,58,0.00,,OVC016,0.00,VWS V14.01,2013-05-22 09:01:00,
2013-05-22 02:06:00,63.1,48.1,29.80,SE,133,0.0,0.0,58,0.00,,OVC016,0.00,VWS V14.01,2013-05-22 09:06:00,
2013-05-22 02:12:00,62.9,47.0,29.80,SE,134,0.0,0.0,56,0.00,,OVC016,0.00,VWS V14.01,2013-05-22 09:12:00,
2013-05-22 02:17:00,62.9,46.1,29.80,SE,135,2.7,3.6,54,0.00,,OVC016,0.00,VWS V14.01,2013-05-22 09:17:00,
2013-05-22 02:23:00,63.1,46.2,29.77,SE,134,4.0,4.9,54,0.00,,OVC016,0.00,VWS V14.01,2013-05-22 09:23:00,
2013-05-22 02:29:00,62.9,45.6,29.77,ESE,113,3.6,3.6,53,0.00,,OVC016,0.00,VWS V14.01,2013-05-22 09:29:00,
2013-05-22 02:34:00,62.9,44.5,29.77,East,93,0.0,3.6,51,0.00,,OVC016,0.00,VWS V14.01,2013-05-22 09:34:00,
2013-05-22 02:39:00,62.9,44.5,29.77,SE,124,3.1,3.6,51,0.00,,OVC016,0.00,VWS V14.01,2013-05-22 09:39:00,
2013-05-22 02:44:00,62.9,44.5,29.77,South,191,2.2,4.0,51,0.00,,OVC016,0.00,VWS V14.01,2013-05-22 09:44:00,
2013-05-22 02:49:00,62.9,44.0,29.77,SE,137,2.7,4.5,50,0.00,,OVC016,0.00,VWS V14.01,2013-05-22 09:49:00,
2013-05-22 02:55:00,62.9,44.0,29.77,SE,136,0.0,4.0,50,0.00,,OVC016,0.00,VWS V14.01,2013-05-22 09:55:00,
2013-05-22 03:00:00,62.9,43.5,29.77,ESE,119,3.6,4.9,49,0.00,,OVC016,0.00,VWS V14.01,2013-05-22 10:00:00,
2013-05-22 03:05:00,62.9,43.5,29.77,SE,128,5.8,5.8,49,0.00,,OVC016,0.00,VWS V14.01,2013-05-22 10:05:00,
2013-05-22 03:10:00,62.9,43.5,29.77,ESE,108,4.0,5.8,49,0.00,,OVC016,0.00,VWS V14.01,2013-05-22 10:10:00,
2013-05-22 03:16:00,62.8,42.8,29.77,SSE,155,2.7,4.9,48,0.00,,OVC016,0.00,VWS V14.01,2013-05-22 10:16:00,
2013-05-22 03:22:00,62.8,42.8,29.77,SE,139,4.5,4.5,48,0.00,,OVC016,0.00,VWS V14.01,2013-05-22 10:22:00,
2013-05-22 03:27:00,62.9,43.0,29.77,SSE,149,2.7,6.3,48,0.00,,OVC016,0.00,VWS V14.01,2013-05-22 10:27:00,
2013-05-22 03:33:00,62.9,43.0,29.77,ESE,111,3.1,3.1,48,0.00,,OVC016,0.00,VWS V14.01,2013-05-22 10:33:00,
2013-05-22 03:38:00,62.9,43.0,29.77,ESE,106,5.4,5.8,48,0.00,,OVC018,0.00,VWS V14.01,2013-05-22 10:38:00,
2013-05-22 03:44:00,62.9,43.0,29.77,South,178,2.7,4.0,48,0.00,,OVC018,0.00,VWS V14.01,2013-05-22 10:44:00,
2013-05-22 03:50:00,62.8,42.8,29.77,SE,142,5.4,5.4,48,0.00,,OVC018,0.00,VWS V14.01,2013-05-22 10:50:00,
2013-05-22 03:55:00,62.8,42.8,29.77,SE,141,4.0,4.0,48,0.00,,OVC018,0.00,VWS V14.01,2013-05-22 10:55:00,
2013-05-22 04:01:00,62.8,42.2,29.77,SSE,149,0.0,3.1,47,0.00,,OVC018,0.00,VWS V14.01,2013-05-22 11:01:00,
2013-05-22 04:07:00,62.8,42.8,29.77,SE,137,0.0,3.6,48,0.00,,OVC018,0.00,VWS V14.01,2013-05-22 11:07:00,
2013-05-22 04:12:00,62.8,42.8,29.77,SE,142,2.2,4.9,48,0.00,,OVC018,0.00,VWS V14.01,2013-05-22 11:12:00,
2013-05-22 04:18:00,62.8,42.2,29.77,SE,126,0.0,0.0,47,0.00,,OVC018,0.00,VWS V14.01,2013-05-22 11:18:00,
2013-05-22 04:23:00,62.8,42.8,29.77,SE,130,4.9,4.9,48,0.00,,OVC018,0.00,VWS V14.01,2013-05-22 11:23:00,
2013-05-22 04:28:00,62.8,42.8,29.77,ESE,105,2.2,4.0,48,0.00,,OVC018,0.00,VWS V14.01,2013-05-22 11:28:00,
2013-05-22 04:33:00,62.8,42.8,29.77,SE,135,3.1,4.0,48,0.00,,OVC018,0.00,VWS V14.01,2013-05-22 11:33:00,
2013-05-22 04:39:00,62.9,43.0,29.77,SE,140,0.0,3.6,48,0.00,,OVC020,0.00,VWS V14.01,2013-05-22 11:39:00,
2013-05-22 04:44:00,62.9,43.0,29.77,SE,136,4.0,4.0,48,0.00,,OVC020,0.00,VWS V14.01,2013-05-22 11:44:00,
2013-05-22 04:50:00,62.8,42.2,29.77,SSE,149,5.4,6.3,47,0.00,,OVC020,0.00,VWS V14.01,2013-05-22 11:50:00,
2013-05-22 04:56:00,62.8,41.7,29.77,ESE,112,3.1,3.6,46,0.00,,OVC020,0.00,VWS V14.01,2013-05-22 11:56:00,
2013-05-22 05:02:00,62.9,42.4,29.77,SE,132,3.1,5.8,47,0.00,,OVC020,0.00,VWS V14.01,2013-05-22 12:02:00,
2013-05-22 05:08:00,62.9,42.4,29.77,SE,126,2.7,4.0,47,0.00,,OVC020,0.00,VWS V14.01,2013-05-22 12:08:00,
2013-05-22 05:14:00,62.9,42.4,29.77,SE,132,3.6,3.6,47,0.00,,OVC020,0.00,VWS V14.01,2013-05-22 12:14:00,
2013-05-22 05:19:00,62.9,42.4,29.77,ESE,123,2.7,4.9,47,0.00,,OVC020,0.00,VWS V14.01,2013-05-22 12:19:00,
2013-05-22 05:25:00,62.9,42.4,29.77,SE,130,3.1,4.9,47,0.00,,OVC020,0.00,VWS V14.01,2013-05-22 12:25:00,
2013-05-22 05:30:00,62.9,42.4,29.77,SE,146,2.7,4.9,47,0.00,,OVC020,0.00,VWS V14.01,2013-05-22 12:30:00,
2013-05-22 05:36:00,62.8,42.2,29.77,SE,140,3.6,4.0,47,0.00,,OVC020,0.00,VWS V14.01,2013-05-22 12:36:00,
2013-05-22 05:42:00,62.9,42.4,29.77,East,88,2.7,4.0,47,0.00,,OVC020,0.00,VWS V14.01,2013-05-22 12:42:00,
2013-05-22 05:47:00,62.9,42.4,29.77,SSE,149,2.7,4.0,47,0.00,,OVC020,0.00,VWS V14.01,2013-05-22 12:47:00,
2013-05-22 05:53:00,62.8,42.2,29.77,SE,139,4.9,4.9,47,0.00,,OVC020,0.00,VWS V14.01,2013-05-22 12:53:00,
2013-05-22 05:58:00,62.8,42.8,29.77,SE,141,4.0,4.9,48,0.00,,OVC020,0.00,VWS V14.01,2013-05-22 12:58:00,
2013-05-22 06:03:00,62.8,42.8,29.77,SSW,193,2.7,3.6,48,0.00,,OVC020,0.00,VWS V14.01,2013-05-22 13:03:00,
2013-05-22 06:08:00,62.8,42.8,29.77,SSE,162,4.9,5.4,48,0.00,,OVC020,0.00,VWS V14.01,2013-05-22 13:08:00,
2013-05-22 06:13:00,62.8,42.8,29.77,SE,132,0.0,2.7,48,0.00,,OVC020,0.00,VWS V14.01,2013-05-22 13:13:00,
2013-05-22 06:18:00,62.8,42.8,29.77,SSW,208,2.7,4.0,48,0.00,,OVC020,0.00,VWS V14.01,2013-05-22 13:18:00,
2013-05-22 06:24:00,62.8,43.3,29.77,SSW,208,0.0,2.2,49,0.00,,OVC020,0.00,VWS V14.01,2013-05-22 13:24:00,
2013-05-22 06:29:00,62.8,43.3,29.77,SSW,208,0.0,2.7,49,0.00,,OVC020,0.00,VWS V14.01,2013-05-22 13:29:00,
2013-05-22 06:34:00,62.8,43.3,29.77,SE,137,5.4,5.8,49,0.00,,OVC020,0.00,VWS V14.01,2013-05-22 13:34:00,
2013-05-22 06:39:00,62.8,42.8,29.77,SE,134,3.6,4.0,48,0.00,,OVC020,0.00,VWS V14.01,2013-05-22 13:39:00,
2013-05-22 06:44:00,62.8,43.3,29.77,SE,128,4.0,5.4,49,0.00,,OVC022,0.00,VWS V14.01,2013-05-22 13:44:00,
2013-05-22 06:50:00,62.8,42.8,29.77,SSW,193,3.1,4.0,48,0.00,,OVC022,0.00,VWS V14.01,2013-05-22 13:50:00,
2013-05-22 06:55:00,62.8,43.3,29.77,SE,133,3.1,6.3,49,0.00,,OVC022,0.00,VWS V14.01,2013-05-22 13:55:00,
2013-05-22 07:00:00,62.8,43.3,29.77,South,172,4.0,4.0,49,0.00,,OVC022,0.00,VWS V14.01,2013-05-22 14:00:00,
2013-05-22 07:05:00,62.9,43.0,29.77,SE,134,5.4,6.3,48,0.00,,OVC022,0.00,VWS V14.01,2013-05-22 14:05:00,
2013-05-22 07:10:00,62.9,43.0,29.77,SSE,156,2.7,3.1,48,0.00,,OVC022,0.00,VWS V14.01,2013-05-22 14:10:00,
2013-05-22 07:16:00,63.1,43.1,29.77,SSE,156,0.0,0.0,48,0.00,,OVC022,0.00,VWS V14.01,2013-05-22 14:16:00,
2013-05-22 07:21:00,62.9,42.4,29.77,SE,135,6.3,8.1,47,0.00,,OVC022,0.00,VWS V14.01,2013-05-22 14:21:00,
2013-05-22 07:27:00,63.1,42.6,29.77,SE,134,3.1,6.3,47,0.00,,OVC022,0.00,VWS V14.01,2013-05-22 14:27:00,
2013-05-22 07:32:00,63.1,42.6,29.77,SE,145,2.7,2.7,47,0.00,,OVC022,0.00,VWS V14.01,2013-05-22 14:32:00,
2013-05-22 07:38:00,63.1,41.5,29.80,SE,133,6.3,6.7,45,0.00,,OVC022,0.00,VWS V14.01,2013-05-22 14:38:00,
2013-05-22 07:43:00,63.3,41.6,29.80,SE,134,0.0,0.0,45,0.00,,OVC022,0.00,VWS V14.01,2013-05-22 14:43:00,
2013-05-22 07:49:00,63.5,41.2,29.80,ESE,120,5.8,5.8,44,0.00,,OVC022,0.00,VWS V14.01,2013-05-22 14:49:00,
2013-05-22 07:55:00,63.5,41.2,29.80,SSE,154,8.1,8.1,44,0.00,,OVC022,0.00,VWS V14.01,2013-05-22 14:55:00,
2013-05-22 08:00:00,63.7,41.4,29.80,SE,132,2.7,4.0,44,0.00,,OVC022,0.00,VWS V14.01,2013-05-22 15:00:00,
2013-05-22 08:05:00,63.8,40.9,29.80,ESE,108,5.4,5.8,43,0.00,,OVC022,0.00,VWS V14.01,2013-05-22 15:05:00,
2013-05-22 08:10:00,63.8,40.9,29.80,ESE,117,4.0,5.8,43,0.00,,OVC022,0.00,VWS V14.01,2013-05-22 15:10:00,
2013-05-22 08:16:00,64.0,41.1,29.80,East,87,2.7,5.4,43,0.00,,OVC022,0.00,VWS V14.01,2013-05-22 15:16:00,
2013-05-22 08:21:00,64.2,40.0,29.80,ESE,115,3.6,5.8,41,0.00,,OVC022,0.00,VWS V14.01,2013-05-22 15:21:00,
2013-05-22 08:26:00,64.4,40.8,29.80,East,91,4.0,5.4,42,0.00,,OVC022,0.00,VWS V14.01,2013-05-22 15:26:00,
2013-05-22 08:31:00,64.6,40.3,29.80,ENE,78,3.6,4.0,41,0.00,,OVC022,0.00,VWS V14.01,2013-05-22 15:31:00,
2013-05-22 08:36:00,64.6,39.7,29.80,NE,48,4.0,4.9,40,0.00,,OVC022,0.00,VWS V14.01,2013-05-22 15:36:00,
2013-05-22 08:41:00,64.6,39.7,29.80,East,82,3.6,6.3,40,0.00,,OVC022,0.00,VWS V14.01,2013-05-22 15:41:00,
2013-05-22 08:47:00,64.6,39.7,29.80,SE,125,3.6,4.9,40,0.00,,OVC022,0.00,VWS V14.01,2013-05-22 15:47:00,
2013-05-22 08:52:00,64.7,39.9,29.80,ENE,66,0.0,3.6,40,0.00,,OVC022,0.00,VWS V14.01,2013-05-22 15:52:00,
2013-05-22 08:58:00,65.3,40.4,29.80,ENE,75,5.4,5.4,40,0.00,,OVC022,0.00,VWS V14.01,2013-05-22 15:58:00,
2013-05-22 09:03:00,65.5,39.9,29.80,East,84,0.0,4.9,39,0.00,,OVC022,0.00,VWS V14.01,2013-05-22 16:03:00,
2013-05-22 09:09:00,65.5,39.2,29.80,SE,126,3.1,3.1,38,0.00,,OVC022,0.00,VWS V14.01,2013-05-22 16:09:00,
2013-05-22 09:15:00,65.6,39.4,29.80,SE,139,2.7,3.1,38,0.00,,OVC022,0.00,VWS V14.01,2013-05-22 16:15:00,
2013-05-22 09:20:00,65.6,39.4,29.80,SE,137,2.2,3.1,38,0.00,,OVC022,0.00,VWS V14.01,2013-05-22 16:20:00,
2013-05-22 09:25:00,65.6,40.7,29.80,SSE,156,3.6,8.7,40,0.00,,OVC022,0.00,VWS V14.01,2013-05-22 16:25:00,
2013-05-22 09:30:00,65.6,42.6,29.80,SE,140,0.0,2.2,43,0.00,,OVC022,0.00,VWS V14.01,2013-05-22 16:30:00,
2013-05-22 09:36:00,65.8,42.7,29.80,SSE,161,2.7,4.0,43,0.00,,OVC024,0.00,VWS V14.01,2013-05-22 16:36:00,
2013-05-22 09:41:00,65.8,42.7,29.80,SSE,167,5.8,5.8,43,0.00,,OVC024,0.00,VWS V14.01,2013-05-22 16:41:00,
2013-05-22 09:47:00,65.8,43.3,29.80,SW,218,5.4,5.4,44,0.00,,OVC024,0.00,VWS V14.01,2013-05-22 16:47:00,
2013-05-22 09:52:00,65.8,43.3,29.80,SW,222,2.7,4.9,44,0.00,,OVC024,0.00,VWS V14.01,2013-05-22 16:52:00,
2013-05-22 09:58:00,66.5,44.0,29.80,South,182,4.0,4.0,44,0.00,,OVC024,0.00,VWS V14.01,2013-05-22 16:58:00,
2013-05-22 10:03:00,66.9,43.1,29.80,SSW,195,6.3,6.3,42,0.00,,OVC024,0.00,VWS V14.01,2013-05-22 17:03:00,
2013-05-22 10:09:00,67.1,43.2,29.80,SW,219,3.6,4.0,42,0.00,,OVC024,0.00,VWS V14.01,2013-05-22 17:09:00,
2013-05-22 10:14:00,67.4,42.3,29.80,SSW,194,3.6,4.0,40,0.00,,OVC024,0.00,VWS V14.01,2013-05-22 17:14:00,
2013-05-22 10:19:00,67.4,41.0,29.80,South,182,2.7,4.0,38,0.00,,OVC024,0.00,VWS V14.01,2013-05-22 17:19:00,
2013-05-22 10:25:00,67.8,41.3,29.80,WSW,240,7.6,7.6,38,0.00,,OVC024,0.00,VWS V14.01,2013-05-22 17:25:00,
2013-05-22 10:30:00,67.6,41.1,29.80,SSW,208,5.8,8.3,38,0.00,,OVC024,0.00,VWS V14.01,2013-05-22 17:30:00,
2013-05-22 10:35:00,67.4,41.6,29.80,SSW,194,8.3,8.3,39,0.00,,OVC024,0.00,VWS V14.01,2013-05-22 17:35:00,
2013-05-22 10:40:00,67.4,40.3,29.80,SSE,155,3.6,8.3,37,0.00,,OVC026,0.00,VWS V14.01,2013-05-22 17:40:00,
2013-05-22 10:46:00,67.4,41.0,29.80,SSW,198,3.6,5.8,38,0.00,,OVC026,0.00,VWS V14.01,2013-05-22 17:46:00,
2013-05-22 10:51:00,67.6,40.5,29.80,SSW,201,7.2,7.2,37,0.00,,OVC026,0.00,VWS V14.01,2013-05-22 17:51:00,
2013-05-22 10:57:00,67.6,39.7,29.80,SSW,198,5.8,6.3,36,0.00,,OVC030,0.00,VWS V14.01,2013-05-22 17:57:00,
2013-05-22 11:02:00,67.8,39.9,29.80,SSW,200,5.4,5.4,36,0.00,,OVC030,0.00,VWS V14.01,2013-05-22 18:02:00,
2013-05-22 11:07:00,67.8,39.2,29.80,South,170,3.1,5.8,35,0.00,,OVC030,0.00,VWS V14.01,2013-05-22 18:07:00,
2013-05-22 11:12:00,68.7,40.0,29.80,SSE,158,0.0,4.0,35,0.00,,OVC030,0.00,VWS V14.01,2013-05-22 18:12:00,
2013-05-22 11:18:00,69.1,39.5,29.80,SSW,197,0.0,0.0,34,0.00,,OVC030,0.00,VWS V14.01,2013-05-22 18:18:00,
2013-05-22 11:23:00,69.8,39.4,29.80,SSW,209,3.1,5.4,33,0.00,,OVC030,0.00,VWS V14.01,2013-05-22 18:23:00,
2013-05-22 11:29:00,69.2,38.9,29.80,South,187,4.0,6.3,33,0.00,,OVC030,0.00,VWS V14.01,2013-05-22 18:29:00,
2013-05-22 11:35:00,69.2,38.9,29.80,WSW,244,5.4,5.4,33,0.00,,OVC030,0.00,VWS V14.01,2013-05-22 18:35:00,
2013-05-22 11:40:00,69.1,39.5,29.80,ENE,78,4.9,7.2,34,0.00,,OVC030,0.00,VWS V14.01,2013-05-22 18:40:00,
2013-05-22 11:45:00,70.0,39.6,29.80,SSW,200,4.0,4.0,33,0.00,,OVC030,0.00,VWS V14.01,2013-05-22 18:45:00,
2013-05-22 11:50:00,70.3,39.1,29.80,WSW,243,3.1,4.0,32,0.00,,OVC030,0.00,VWS V14.01,2013-05-22 18:50:00,
2013-05-22 11:55:00,69.8,38.6,29.80,WSW,242,6.3,6.3,32,0.00,,OVC030,0.00,VWS V14.01,2013-05-22 18:55:00,
2013-05-22 12:01:00,70.5,39.2,29.80,West,274,5.4,5.4,32,0.00,,OVC030,0.00,VWS V14.01,2013-05-22 19:01:00,
2013-05-22 12:06:00,70.9,39.6,29.80,SSW,201,4.0,5.4,32,0.00,,OVC030,0.00,VWS V14.01,2013-05-22 19:06:00,
2013-05-22 12:12:00,71.0,39.7,29.80,SSW,208,0.0,2.7,32,0.00,,OVC030,0.00,VWS V14.01,2013-05-22 19:12:00,
2013-05-22 12:18:00,71.2,39.1,29.80,NNW,344,4.0,5.8,31,0.00,,OVC030,0.00,VWS V14.01,2013-05-22 19:18:00,
2013-05-22 12:23:00,72.1,39.8,29.80,South,187,2.7,2.7,31,0.00,,OVC030,0.00,VWS V14.01,2013-05-22 19:23:00,
2013-05-22 12:29:00,73.0,39.8,29.80,SW,222,2.7,3.6,30,0.00,,OVC030,0.00,VWS V14.01,2013-05-22 19:29:00,
2013-05-22 12:35:00,73.9,37.9,29.77,SSE,166,4.5,5.8,27,0.00,,OVC030,0.00,VWS V14.01,2013-05-22 19:35:00,
2013-05-22 12:40:00,73.9,35.9,29.77,SSW,213,4.0,5.8,25,0.00,,OVC030,0.00,VWS V14.01,2013-05-22 19:40:00,
2013-05-22 12:45:00,74.8,36.7,29.77,West,275,0.0,0.0,25,0.00,,OVC030,0.00,VWS V14.01,2013-05-22 19:45:00,
2013-05-22 12:50:00,74.6,36.5,29.77,SSE,150,6.3,7.6,25,0.00,,OVC030,0.00,VWS V14.01,2013-05-22 19:50:00,
2013-05-22 12:56:00,72.8,37.9,29.77,SW,215,6.3,6.3,28,0.00,,SCT028,0.00,VWS V14.01,2013-05-22 19:56:00,
2013-05-22 13:01:00,73.9,36.9,29.77,SSW,198,5.8,8.7,26,0.00,,SCT028,0.00,VWS V14.01,2013-05-22 20:01:00,
2013-05-22 13:07:00,74.5,37.4,29.77,East,82,0.0,3.1,26,0.00,,SCT028,0.00,VWS V14.01,2013-05-22 20:07:00,
2013-05-22 13:13:00,75.7,35.3,29.77,SE,141,2.7,5.4,23,0.00,,SCT028,0.00,VWS V14.01,2013-05-22 20:13:00,
2013-05-22 13:18:00,74.5,36.4,29.77,SSE,153,4.9,5.8,25,0.00,,SCT028,0.00,VWS V14.01,2013-05-22 20:18:00,
2013-05-22 13:24:00,75.0,35.8,29.77,SSW,194,5.4,5.4,24,0.00,,SCT028,0.00,VWS V14.01,2013-05-22 20:24:00,
2013-05-22 13:29:00,75.0,34.7,29.77,SSW,207,5.4,8.1,23,0.00,,SCT028,0.00,VWS V14.01,2013-05-22 20:29:00,
2013-05-22 13:35:00,75.9,35.5,29.77,SSW,208,6.3,6.3,23,0.00,,SCT028,0.00,VWS V14.01,2013-05-22 20:35:00,
2013-05-22 13:40:00,76.3,34.7,29.77,SSW,193,4.0,6.3,22,0.00,,SCT028,0.00,VWS V14.01,2013-05-22 20:40:00,
2013-05-22 13:46:00,75.9,35.5,29.77,SE,131,5.8,6.3,23,0.00,,SCT028,0.00,VWS V14.01,2013-05-22 20:46:00,
2013-05-22 13:51:00,75.9,34.4,29.77,SE,135,6.3,6.3,22,0.00,,SCT028,0.00,VWS V14.01,2013-05-22 20:51:00,
2013-05-22 13:56:00,75.7,34.2,29.77,SSW,210,5.8,6.3,22,0.00,,SCT028,0.00,VWS V14.01,2013-05-22 20:56:00,
2013-05-22 14:01:00,75.5,34.1,29.77,SSW,203,2.7,6.3,22,0.00,,SCT028,0.00,VWS V14.01,2013-05-22 21:01:00,
2013-05-22 14:07:00,75.7,34.2,29.77,SSW,196,8.7,8.7,22,0.00,,SCT028,0.00,VWS V14.01,2013-05-22 21:07:00,
2013-05-22 14:13:00,74.8,33.5,29.77,SSW,199,5.8,8.1,22,0.00,,SCT028,0.00,VWS V14.01,2013-05-22 21:13:00,
2013-05-22 14:18:00,74.8,34.6,29.77,WSW,248,2.7,6.3,23,0.00,,SCT028,0.00,VWS V14.01,2013-05-22 21:18:00,
2013-05-22 14:23:00,75.7,34.2,29.77,SSE,151,5.8,7.6,22,0.00,,SCT028,0.00,VWS V14.01,2013-05-22 21:23:00,
2013-05-22 14:28:00,75.5,34.1,29.77,SW,227,6.3,10.5,22,0.00,,SCT028,0.00,VWS V14.01,2013-05-22 21:28:00,
2013-05-22 14:34:00,74.8,34.6,29.77,South,186,6.7,6.7,23,0.00,,SCT028,0.00,VWS V14.01,2013-05-22 21:34:00,
2013-05-22 14:39:00,75.5,35.2,29.77,SSE,158,5.4,6.3,23,0.00,,,0.00,VWS V14.01,2013-05-22 21:39:00,
2013-05-22 14:44:00,75.9,34.4,29.77,SSW,205,5.8,6.3,22,0.00,,,0.00,VWS V14.01,2013-05-22 21:44:00,
2013-05-22 14:49:00,75.9,35.5,29.74,SSW,196,4.9,8.7,23,0.00,,,0.00,VWS V14.01,2013-05-22 21:49:00,
2013-05-22 14:55:00,75.2,33.8,29.74,SSW,198,8.1,8.3,22,0.00,,,0.00,VWS V14.01,2013-05-22 21:55:00,
2013-05-22 15:00:00,74.8,35.6,29.74,SSW,202,5.4,8.1,24,0.00,,,0.00,VWS V14.01,2013-05-22 22:00:00,
2013-05-22 15:06:00,75.4,35.0,29.74,SSE,164,4.0,8.1,23,0.00,,,0.00,VWS V14.01,2013-05-22 22:06:00,
2013-05-22 15:12:00,74.5,36.4,29.74,SSW,192,7.6,8.7,25,0.00,,,0.00,VWS V14.01,2013-05-22 22:12:00,
2013-05-22 15:17:00,75.0,35.8,29.74,South,190,6.3,7.6,24,0.00,,,0.00,VWS V14.01,2013-05-22 22:17:00,
2013-05-22 15:23:00,74.5,35.3,29.74,South,169,8.3,8.3,24,0.00,,,0.00,VWS V14.01,2013-05-22 22:23:00,
2013-05-22 15:28:00,74.1,35.0,29.74,SSE,148,3.6,6.3,24,0.00,,,0.00,VWS V14.01,2013-05-22 22:28:00,
2013-05-22 15:33:00,74.1,36.1,29.74,SSE,150,8.3,8.3,25,0.00,,,0.00,VWS V14.01,2013-05-22 22:33:00,
2013-05-22 15:38:00,73.6,36.6,29.74,SW,234,4.0,5.8,26,0.00,,CLR,0.00,VWS V14.01,2013-05-22 22:38:00,
2013-05-22 15:44:00,73.9,35.9,29.74,NW,311,4.0,6.3,25,0.00,,CLR,0.00,VWS V14.01,2013-05-22 22:44:00,
2013-05-22 15:50:00,74.6,38.5,29.74,South,169,4.9,4.9,27,0.00,,CLR,0.00,VWS V14.01,2013-05-22 22:50:00,
2013-05-22 15:56:00,74.6,37.5,29.74,SSW,196,8.3,8.3,26,0.00,,CLR,0.00,VWS V14.01,2013-05-22 22:56:00,
2013-05-22 16:01:00,73.9,38.8,29.74,SSW,211,6.3,8.7,28,0.00,,CLR,0.00,VWS V14.01,2013-05-22 23:01:00,
2013-05-22 16:06:00,73.6,38.5,29.74,SSE,160,3.6,6.3,28,0.00,,CLR,0.00,VWS V14.01,2013-05-22 23:06:00,
2013-05-22 16:11:00,74.1,38.0,29.74,SSW,204,8.1,8.3,27,0.00,,CLR,0.00,VWS V14.01,2013-05-22 23:11:00,
2013-05-22 16:16:00,73.9,39.7,29.74,SE,134,3.1,8.1,29,0.00,,CLR,0.00,VWS V14.01,2013-05-22 23:16:00,
2013-05-22 16:22:00,73.7,37.7,29.74,SSE,158,5.4,8.1,27,0.00,,CLR,0.00,VWS V14.01,2013-05-22 23:22:00,
2013-05-22 16:27:00,72.8,37.9,29.74,SSW,205,4.0,8.1,28,0.00,,CLR,0.00,VWS V14.01,2013-05-22 23:27:00,
2013-05-22 16:33:00,72.5,37.6,29.74,SSW,194,7.6,7.6,28,0.00,,CLR,0.00,VWS V14.01,2013-05-22 23:33:00,
2013-05-22 16:39:00,72.7,37.7,29.74,South,179,4.9,6.3,28,0.00,,FEW024,0.00,VWS V14.01,2013-05-22 23:39:00,
2013-05-22 16:44:00,72.5,37.6,29.74,South,181,6.7,6.7,28,0.00,,FEW024,0.00,VWS V14.01,2013-05-22 23:44:00,
2013-05-22 16:50:00,73.0,38.0,29.74,SSE,161,6.3,6.3,28,0.00,,FEW024,0.00,VWS V14.01,2013-05-22 23:50:00,
2013-05-22 16:55:00,72.3,38.3,29.74,SSW,201,5.8,7.6,29,0.00,,FEW024,0.00,VWS V14.01,2013-05-22 23:55:00,
2013-05-22 17:01:00,72.7,37.7,29.74,SSE,159,5.4,8.7,28,0.00,,FEW024,0.00,VWS V14.01,2013-05-23 00:01:00,
2013-05-22 17:06:00,73.6,36.6,29.74,SSW,205,5.4,8.1,26,0.00,,FEW024,0.00,VWS V14.01,2013-05-23 00:06:00,
2013-05-22 17:12:00,73.6,36.6,29.74,SSW,201,6.3,6.7,26,0.00,,FEW028,0.00,VWS V14.01,2013-05-23 00:12:00,
2013-05-22 17:18:00,73.0,36.1,29.74,SE,130,5.4,5.8,26,0.00,,FEW028,0.00,VWS V14.01,2013-05-23 00:18:00,
2013-05-22 17:23:00,71.8,38.7,29.74,SSE,155,7.6,10.1,30,0.00,,FEW028,0.00,VWS V14.01,2013-05-23 00:23:00,
2013-05-22 17:28:00,71.8,37.8,29.74,WSW,238,4.0,5.4,29,0.00,,FEW028,0.00,VWS V14.01,2013-05-23 00:28:00,
2013-05-22 17:33:00,72.7,38.6,29.74,WSW,252,3.6,4.0,29,0.00,,FEW028,0.00,VWS V14.01,2013-05-23 00:33:00,
2013-05-22 17:39:00,71.9,38.8,29.74,NNW,343,4.0,6.3,30,0.00,,FEW028,0.00,VWS V14.01,2013-05-23 00:39:00,
2013-05-22 17:44:00,71.4,39.2,29.74,NNW,346,6.3,8.1,31,0.00,,FEW028,0.00,VWS V14.01,2013-05-23 00:44:00,
2013-05-22 17:49:00,71.6,39.4,29.74,SW,236,5.4,7.6,31,0.00,,FEW028,0.00,VWS V14.01,2013-05-23 00:49:00,
2013-05-22 17:54:00,71.6,39.4,29.74,NNW,337,4.0,6.3,31,0.00,,FEW028,0.00,VWS V14.01,2013-05-23 00:54:00,
2013-05-22 18:00:00,69.6,38.5,29.74,West,277,5.4,7.2,32,0.00,,FEW028,0.00,VWS V14.01,2013-05-23 01:00:00,
2013-05-22 18:05:00,70.3,39.1,29.71,NW,309,3.6,7.2,32,0.00,,FEW028,0.00,VWS V14.01,2013-05-23 01:05:00,
2013-05-22 18:10:00,70.1,38.9,29.71,North,353,5.4,6.3,32,0.00,,FEW028,0.00,VWS V14.01,2013-05-23 01:10:00,
2013-05-22 18:15:00,69.6,39.2,29.71,NW,307,4.0,6.3,33,0.00,,FEW028,0.00,VWS V14.01,2013-05-23 01:15:00,
2013-05-22 18:21:00,69.8,39.4,29.74,West,278,5.4,6.3,33,0.00,,FEW028,0.00,VWS V14.01,2013-05-23 01:21:00,
2013-05-22 18:26:00,69.8,38.6,29.74,WSW,258,2.2,4.9,32,0.00,,FEW028,0.00,VWS V14.01,2013-05-23 01:26:00,
2013-05-22 18:32:00,68.2,38.8,29.74,West,271,5.4,5.8,34,0.00,,FEW028,0.00,VWS V14.01,2013-05-23 01:32:00,
2013-05-22 18:38:00,68.7,39.2,29.74,WSW,250,4.9,8.1,34,0.00,,SCT029,0.00,VWS V14.01,2013-05-23 01:38:00,
2013-05-22 18:43:00,68.2,38.8,29.74,WNW,295,4.0,7.6,34,0.00,,SCT029,0.00,VWS V14.01,2013-05-23 01:43:00,
2013-05-22 18:48:00,68.5,39.1,29.74,WNW,287,5.8,5.8,34,0.00,,SCT029,0.00,VWS V14.01,2013-05-23 01:48:00,
2013-05-22 18:54:00,68.2,38.8,29.74,NW,307,3.6,5.8,34,0.00,,SCT029,0.00,VWS V14.01,2013-05-23 01:54:00,
2013-05-22 19:00:00,67.8,39.2,29.74,West,266,3.1,4.0,35,0.00,,SCT029,0.00,VWS V14.01,2013-05-23 02:00:00,
2013-05-22 19:05:00,67.6,39.0,29.74,WNW,286,4.9,6.3,35,0.00,,SCT029,0.00,VWS V14.01,2013-05-23 02:05:00,
2013-05-22 19:11:00,67.6,38.3,29.74,NW,309,4.0,5.8,34,0.00,,SCT029,0.00,VWS V14.01,2013-05-23 02:11:00,
2013-05-22 19:16:00,67.8,38.4,29.74,NW,326,2.7,4.9,34,0.00,,SCT029,0.00,VWS V14.01,2013-05-23 02:16:00,
2013-05-22 19:22:00,67.4,38.1,29.74,SSW,213,5.8,5.8,34,0.00,,SCT029,0.00,VWS V14.01,2013-05-23 02:22:00,
2013-05-22 19:27:00,66.9,38.4,29.74,West,271,4.0,5.4,35,0.00,,SCT029,0.00,VWS V14.01,2013-05-23 02:27:00,
2013-05-22 19:32:00,66.0,38.3,29.74,WNW,294,4.0,5.8,36,0.00,,SCT029,0.00,VWS V14.01,2013-05-23 02:32:00,
2013-05-22 19:37:00,66.2,38.5,29.71,SSW,211,4.9,5.8,36,0.00,,SCT029,0.00,VWS V14.01,2013-05-23 02:37:00,
2013-05-22 19:42:00,66.0,39.0,29.71,SSW,200,3.1,3.6,37,0.00,,SCT029,0.00,VWS V14.01,2013-05-23 02:42:00,
2013-05-22 19:48:00,65.5,39.2,29.74,SSW,204,6.3,8.1,38,0.00,,SCT029,0.00,VWS V14.01,2013-05-23 02:48:00,
2013-05-22 19:53:00,65.1,39.5,29.74,SW,214,4.9,4.9,39,0.00,,SCT029,0.00,VWS V14.01,2013-05-23 02:53:00,
2013-05-22 19:59:00,64.7,39.9,29.74,South,187,6.3,6.3,40,0.00,,SCT029,0.00,VWS V14.01,2013-05-23 02:59:00,
2013-05-22 20:05:00,64.4,40.2,29.74,South,187,4.0,5.4,41,0.00,,SCT029,0.00,VWS V14.01,2013-05-23 03:05:00,
2013-05-22 20:11:00,64.2,40.7,29.74,SSW,199,4.0,5.8,42,0.00,,SCT029,0.00,VWS V14.01,2013-05-23 03:11:00,
2013-05-22 20:16:00,63.8,40.3,29.74,SSW,200,5.8,5.8,42,0.00,,SCT029,0.00,VWS V14.01,2013-05-23 03:16:00,
2013-05-22 20:22:00,63.7,40.8,29.74,SSW,208,4.9,5.8,43,0.00,,SCT029,0.00,VWS V14.01,2013-05-23 03:22:00,
2013-05-22 20:28:00,63.5,40.6,29.74,SSW,204,5.4,5.8,43,0.00,,SCT029,0.00,VWS V14.01,2013-05-23 03:28:00,
2013-05-22 20:33:00,63.3,41.0,29.77,SSW,212,3.6,3.6,44,0.00,,SCT029,0.00,VWS V14.01,2013-05-23 03:33:00,
2013-05-22 20:38:00,63.1,40.9,29.77,SSW,198,2.7,3.1,44,0.00,,FEW029,0.00,VWS V14.01,2013-05-23 03:38:00,
2013-05-22 20:43:00,62.9,40.7,29.77,SSW,195,4.0,4.0,44,0.00,,SCT029,0.00,VWS V14.01,2013-05-23 03:43:00,
2013-05-22 20:49:00,62.8,41.1,29.77,SW,233,5.4,5.8,45,0.00,,FEW029,0.00,VWS V14.01,2013-05-23 03:49:00,
2013-05-22 20:54:00,62.8,41.7,29.77,SSE,167,4.0,7.6,46,0.00,,FEW029,0.00,VWS V14.01,2013-05-23 03:54:00,
2013-05-22 20:59:00,62.6,42.1,29.77,SW,225,2.7,4.9,47,0.00,,FEW029,0.00,VWS V14.01,2013-05-23 03:59:00,
2013-05-22 21:01:00,62.8,42.2,29.77,South,188,3.6,3.6,47,0.00,,FEW029,0.00,VWS V14.01,2013-05-23 04:01:00,
2013-05-22 21:03:00,62.8,42.8,29.77,SSW,196,4.9,5.8,48,0.00,,FEW029,0.00,VWS V14.01,2013-05-23 04:03:00,
2013-05-22 21:04:00,62.8,42.8,29.77,SW,215,2.7,5.4,48,0.00,,FEW029,0.00,VWS V14.01,2013-05-23 04:04:00,
2013-05-22 21:05:00,62.8,43.3,29.77,SE,139,2.2,3.1,49,0.00,,FEW029,0.00,VWS V14.01,2013-05-23 04:05:00,
2013-05-22 21:09:00,62.8,43.3,29.77,SSE,154,2.7,5.4,49,0.00,,FEW029,0.00,VWS V14.01,2013-05-23 04:09:00,
2013-05-22 21:14:00,62.8,43.3,29.77,SSE,154,3.1,3.6,49,0.00,,FEW029,0.00,VWS V14.01,2013-05-23 04:14:00,
2013-05-22 21:19:00,62.6,42.6,29.77,SW,215,3.6,8.1,48,0.00,,FEW029,0.00,VWS V14.01,2013-05-23 04:19:00,
2013-05-22 21:25:00,62.6,42.6,29.77,SSW,205,3.6,4.9,48,0.00,,FEW029,0.00,VWS V14.01,2013-05-23 04:25:00,
2013-05-22 21:30:00,62.6,42.6,29.77,SSE,155,2.7,3.6,48,0.00,,FEW029,0.00,VWS V14.01,2013-05-23 04:30:00,
2013-05-22 21:35:00,62.4,41.9,29.77,SSW,204,3.1,4.0,47,0.00,,OVC034,0.00,VWS V14.01,2013-05-23 04:35:00,
2013-05-22 21:41:00,62.2,42.3,29.77,SSE,160,2.2,4.0,48,0.00,,OVC034,0.00,VWS V14.01,2013-05-23 04:41:00,
2013-05-22 21:46:00,62.2,42.3,29.77,South,181,4.0,4.9,48,0.00,,OVC034,0.00,VWS V14.01,2013-05-23 04:46:00,
2013-05-22 21:51:00,62.2,42.3,29.77,South,189,5.4,5.8,48,0.00,,OVC034,0.00,VWS V14.01,2013-05-23 04:51:00,
2013-05-22 21:56:00,62.0,42.1,29.77,SSW,193,2.2,3.1,48,0.00,,OVC034,0.00,VWS V14.01,2013-05-23 04:56:00,
2013-05-22 22:02:00,62.2,42.8,29.77,SSE,155,2.7,4.0,49,0.00,,OVC034,0.00,VWS V14.01,2013-05-23 05:02:00,
2013-05-22 22:07:00,62.2,42.3,29.77,SSW,200,0.0,3.1,48,0.00,,OVC034,0.00,VWS V14.01,2013-05-23 05:07:00,
2013-05-22 22:12:00,62.0,42.1,29.77,SSE,155,2.7,4.0,48,0.00,,OVC034,0.00,VWS V14.01,2013-05-23 05:12:00,
2013-05-22 22:17:00,62.0,42.1,29.80,SSE,155,3.6,7.6,48,0.00,,OVC034,0.00,VWS V14.01,2013-05-23 05:17:00,
2013-05-22 22:23:00,62.0,42.1,29.80,SSE,156,2.7,3.6,48,0.00,,OVC034,0.00,VWS V14.01,2013-05-23 05:23:00,
2013-05-22 22:28:00,62.0,42.1,29.80,SSW,204,2.7,5.8,48,0.00,,OVC034,0.00,VWS V14.01,2013-05-23 05:28:00,
2013-05-22 22:34:00,61.9,41.4,29.80,SSW,200,3.1,4.0,47,0.00,,OVC034,0.00,VWS V14.01,2013-05-23 05:34:00,
2013-05-22 22:39:00,61.9,40.9,29.80,SSE,149,4.0,4.0,46,0.00,,OVC028,0.00,VWS V14.01,2013-05-23 05:39:00,
2013-05-22 22:45:00,61.9,40.9,29.80,SE,129,0.0,0.0,46,0.00,,OVC028,0.00,VWS V14.01,2013-05-23 05:45:00,
2013-05-22 22:50:00,61.9,40.9,29.80,SW,217,3.6,4.9,46,0.00,,OVC028,0.00,VWS V14.01,2013-05-23 05:50:00,
2013-05-22 22:55:00,61.9,40.3,29.80,SW,232,2.2,3.1,45,0.00,,OVC028,0.00,VWS V14.01,2013-05-23 05:55:00,
2013-05-22 23:00:00,61.9,40.3,29.80,SW,232,2.7,3.1,45,0.00,,OVC028,0.00,VWS V14.01,2013-05-23 06:00:00,
2013-05-22 23:06:00,61.9,40.3,29.80,SW,232,0.0,0.0,45,0.00,,OVC028,0.00,VWS V14.01,2013-05-23 06:06:00,
2013-05-22 23:12:00,61.9,40.3,29.80,SW,232,4.0,4.0,45,0.00,,OVC028,0.00,VWS V14.01,2013-05-23 06:12:00,
2013-05-22 23:17:00,61.9,40.3,29.80,SW,232,3.6,3.6,45,0.00,,OVC028,0.00,VWS V14.01,2013-05-23 06:17:00,
2013-05-22 23:22:00,61.9,40.3,29.80,SSE,160,2.7,4.0,45,0.00,,OVC028,0.00,VWS V14.01,2013-05-23 06:22:00,
2013-05-22 23:27:00,61.9,40.3,29.80,SSW,201,2.2,2.7,45,0.00,,OVC028,0.00,VWS V14.01,2013-05-23 06:27:00,
2013-05-22 23:33:00,61.9,40.9,29.80,SSW,202,2.7,3.1,46,0.00,,OVC028,0.00,VWS V14.01,2013-05-23 06:33:00,
2013-05-22 23:38:00,62.0,41.0,29.80,SE,141,2.2,3.6,46,0.00,,OVC028,0.00,VWS V14.01,2013-05-23 06:38:00,
2013-05-22 23:43:00,62.0,41.6,29.80,SSE,153,4.9,4.9,47,0.00,,OVC028,0.00,VWS V14.01,2013-05-23 06:43:00,
2013-05-22 23:48:00,62.0,41.6,29.80,SE,130,0.0,3.6,47,0.00,,OVC028,0.00,VWS V14.01,2013-05-23 06:48:00,
2013-05-22 23:54:00,62.0,41.6,29.80,SE,130,3.1,3.6,47,0.00,,OVC028,0.00,VWS V14.01,2013-05-23 06:54:00,
2013-05-22 23:59:00,62.0,41.6,29.80,SE,130,0.0,0.0,47,0.00,,OVC030,0.00,VWS V14.01,2013-05-23 06:59:00,